Вернуться в каталог

SL-14 R/B

АктивенPO
NORAD 16736·ROCKET BODY·🇷🇺 Russia

Запущен May 27, 1986 с Plesetsk Cosmodrome

Loading…

Ближайшие Пролёты (ближайшие 24 часа)

TLE

СвежийSource: Space-Track

Эпоха: Sep 14, 2026, 08:03 UTC

1 16736U 86039B   26257.33586049  .00000013  00000-0 -13193-5 0  9996
2 16736  82.5372 219.6732 0012428 340.8061  19.2629 13.84861303 36703

Отслеживайте SL-14 R/B в реальном времени с AllMySat

Download on the App Store